Alexandria, LA

12:34 PM CST on February 18, 2018 (GMT -0600)
Alexandria International

Weather History for KAEX - February, 2007

Change the Weather History Date:

Sunday, February 25, 2007

  Actual Average Record
Temperature  
Mean Temperature 56 °F 54 °F  
Max Temperature 68 °F 66 °F 83 °F (1906)
Min Temperature 44 °F 43 °F 22 °F (1914)
Degree Days  
Heating Degree Days 9 11  
Month to date heating degree days 396 342  
Since 1 July heating degree days 1608 1633  
Growing Degree Days 7 (Base 50)    
Moisture  
Dew Point 34 °F    
Average Humidity 46    
Maximum Humidity 82    
Minimum Humidity 28    
Precipitation  
Precipitation 0.00 in 0.15 in 3.20 in (1997)
Month to date precipitation 1.67 3.99  
Year to date precipitation 8.66 9.21  
Snow  
Snow 0.00 in - T in (1965)
Month to date snowfall 0.0  
Since 1 July snowfall 0.0  
Snow Depth 0.00 in    
Sea Level Pressure  
Sea Level Pressure 29.89 in    
Wind  
Wind Speed 6 mph (NW)    
Max Wind Speed 13 mph    
Max Gust Speed 22 mph    
Visibility 9 miles    
Events      
T = Trace of Precipitation, MM = Missing Value Source: NWS Daily Summary

Daily Weather History Graph

Daily Weather History Graph

Search for Another Location

Airport or City:

Trip Planner

Search our weather history database for the weather conditions in past years. The results will help you decide how hot, cold, wet, or windy it might be!

Date:

Astronomy

Feb. 25, 2007 Rise Set
Actual Time 6:41 AM CST 6:05 PM CST
Civil Twilight 6:17 AM CST 6:29 PM CST
Nautical Twilight 5:49 AM CST 6:57 PM CST
Astronomical Twilight 5:21 AM CST 7:26 PM CST
Moon 12:08 PM CST (2/25) 2:17 AM CST (2/25)
Length of Visible Light 12h 12m
Length of Day
11h 23m
Waxing Gibbous, 65% of the Moon is Illuminated
Feb 25
Waxing Gibbous
Mar 3
Full
Mar 11
Last Quarter
Mar 18
New
Mar 25
First Quarter

Hourly Weather History & Observations

Time (CST) Temp. Dew Point Humidity Pressure Visibility Wind Dir Wind Speed Gust Speed Precip Events Conditions
12:53 AM 59.0 °F 32.0 °F 36% 29.79 in 4.0 mi West 9.2 mph - N/A   Haze
1:53 AM 55.9 °F 34.0 °F 44% 29.79 in 5.0 mi WSW 8.1 mph - N/A   Haze
2:27 AM 57.2 °F 30.2 °F 36% 29.79 in 5.0 mi Variable 4.6 mph - N/A   Haze
2:53 AM 57.0 °F 30.0 °F 36% 29.81 in 5.0 mi West 5.8 mph - N/A   Haze
3:53 AM 55.0 °F 30.9 °F 40% 29.82 in 6.0 mi West 4.6 mph - N/A   Haze
4:53 AM 52.0 °F 32.0 °F 47% 29.85 in 7.0 mi Variable 3.5 mph - N/A   Clear
5:53 AM 51.1 °F 32.0 °F 48% 29.88 in 9.0 mi Variable 3.5 mph - N/A   Clear
6:53 AM 48.9 °F 33.1 °F 54% 29.91 in 10.0 mi West 5.8 mph - N/A   Clear
7:53 AM 50.0 °F 34.0 °F 54% 29.95 in 10.0 mi WNW 9.2 mph - N/A   Clear
8:53 AM 52.0 °F 33.1 °F 49% 29.97 in 10.0 mi WNW 12.7 mph 21.9 mph N/A   Clear
9:53 AM 54.0 °F 33.1 °F 45% 29.99 in 10.0 mi NW 10.4 mph - N/A   Clear
10:53 AM 57.0 °F 35.1 °F 44% 29.99 in 10.0 mi NW 12.7 mph - N/A   Clear
11:53 AM 60.1 °F 35.1 °F 39% 29.97 in 10.0 mi NW 8.1 mph - N/A   Clear
12:53 PM 63.0 °F 35.1 °F 35% 29.93 in 10.0 mi NNW 5.8 mph - N/A   Clear
1:53 PM 66.0 °F 37.9 °F 36% 29.90 in 10.0 mi NNW 10.4 mph - N/A   Clear
2:53 PM 66.9 °F 36.0 °F 32% 29.88 in 10.0 mi North 9.2 mph - N/A   Clear
3:53 PM 68.0 °F 35.1 °F 30% 29.87 in 10.0 mi North 5.8 mph - N/A   Clear
4:53 PM 66.9 °F 33.1 °F 28% 29.87 in 10.0 mi North 6.9 mph - N/A   Clear
5:53 PM 63.0 °F 30.0 °F 29% 29.88 in 10.0 mi NNW 3.5 mph - N/A   Clear
6:53 PM 55.9 °F 33.1 °F 42% 29.90 in 10.0 mi Calm Calm - N/A   Partly Cloudy
7:53 PM 53.1 °F 39.0 °F 59% 29.91 in 10.0 mi Calm Calm - N/A   Clear
8:53 PM 50.0 °F 37.9 °F 63% 29.92 in 10.0 mi Calm Calm - N/A   Clear
9:53 PM 50.0 °F 41.0 °F 71% 29.92 in 10.0 mi Calm Calm - N/A   Partly Cloudy
10:53 PM 46.0 °F 39.9 °F 79% 29.91 in 10.0 mi Calm Calm - N/A   Partly Cloudy
11:53 PM 44.1 °F 39.0 °F 82% 29.91 in 10.0 mi Calm Calm - N/A   Partly Cloudy